Regional Weather Roundup
Issued by NWS

Home | Current Version | Previous Version | Graphics & Text | Print | Product List | Glossary On
Versions: 1 2 3 4 5 6 7 8 9 10 11 12 13 14 15 16 17 18 19 20 21 22 23 24 25 26 27 28 29 30 31 32 33 34 35 36 37 38 39 40 41 42 43 44 45 46 47 48 49 50
000
ASUS44 KMEG 260210
RWRTN
TENNESSEE HOURLY STATE WEATHER ROUNDUP
NATIONAL WEATHER SERVICE MEMPHIS TN
900 PM CDT TUE JUL 25 2017

TNZ002-004-019-021-049-052-054-088>092-260300-
WEST TENNESSEE

CITY           SKY/WX    TMP DP  RH WIND       PRES   REMARKS
MEMPHIS INTL   PTCLDY    86  76  71 SW9       30.06R HX  96
NWS MEMPHIS      N/A     84 N/A N/A MISG        N/A
JACKSON        PTCLDY    82  77  84 SW6       30.07R HX  90
COVINGTON      CLEAR     84  75  74 S5        30.05R HX  92
UNION CITY       N/A     82  77  83 E3        30.05R HX  91
BOLIVAR        CLEAR     79  73  83 CALM      30.06S
PARIS          CLEAR     79  77  94 CALM      30.06R
HUNTINGDON     PTCLDY    82  79  89 CALM      30.06R HX  93
LEXINGTON      CLEAR     81  79  94 CALM      30.06S
SELMER         CLEAR     81  75  83 CALM      30.07S
SAVANNAH       PTCLDY    81  77  89 CALM      30.06S
$$

TNZ008-025-027-028-033-062-065-066-260300-
NORTH MIDDLE TENNESSEE

CITY           SKY/WX    TMP DP  RH WIND       PRES   REMARKS
NASHVILLE      MOCLDY    82  73  74 CALM      30.09R
PORTLAND         N/A     81  72  74 E6        30.09S
CLARKSVILLE    CLOUDY    79  73  82 CALM      30.08S
SMYRNA         PTCLDY    81  73  76 CALM      30.09R
COOKEVILLE     CLEAR     75  72  88 CALM      30.11S
GALLATIN       CLOUDY    82  73  74 NE3       30.11R
CROSSVILLE     CLEAR     76  67  73 NE3       30.18R
$$

TNZ061-075-076-078-094-096-097-260300-
SOUTH MIDDLE TENNESSEE

CITY           SKY/WX    TMP DP  RH WIND       PRES   REMARKS
FAYETTEVILLE   MOCLDY    75  73  94 NE14G20   30.11S FOG
TULLAHOMA      PTCLDY    79  70  73 SW10      30.13S
WINCHESTER     PTCLDY    79  72  78 W5        30.13R
MCMINNVILLE    CLEAR     79  77  94 CALM      30.11S
COLUMBIA       MOCLDY    84  75  74 CALM      30.06R HX  92
SHELBYVILLE    PTCLDY    77  72  83 CALM      30.10R
$$

TNZ017-018-042-046-047-260300-
NORTHEAST TENNESSEE

CITY           SKY/WX    TMP DP  RH WIND       PRES   REMARKS
TRI CITIES     PTCLDY    77  66  68 CALM      30.16R
ELIZABETHTON   CLOUDY    75  68  78 NE5       30.17R
$$

TNZ012-013-036-069-073-074-260300-
CENTRAL EAST TENNESSEE

CITY           SKY/WX    TMP DP  RH WIND       PRES   REMARKS
KNOXVILLE      PTCLDY    80  65  59 CALM      30.10S
OAK RIDGE      CLEAR     78  67  68 CALM      30.13R
DOWNTOWN KNOXV CLEAR     73  70  88 CALM      30.10R
GATLINBURG     PTCLDY    79  63  57 CALM      30.12R
MORRISTOWN     PTCLDY    81  70  69 CALM      30.13R
JACKSBORO      CLEAR     73  68  83 CALM      30.16S
$$

TNZ083-085-099-260300-
SOUTHEAST TENNESSEE

CITY           SKY/WX    TMP DP  RH WIND       PRES   REMARKS
CHATTANOOGA    PTCLDY    83  70  64 CALM      30.10R
DAYTON         CLOUDY    79  77  94 CALM      30.09R
$$

SKY/WX REPORTED AS FAIR MEANS FEW OR NO CLOUDS BELOW
12 THOUSAND FEET.




USA.gov is the U.S. government's official web portal to all federal, state and local government web resources and services.